Location: San Gennaro Vesuviano
(40.8833°N, 14.5333°E)
Time: 20:49:49
(UTC+00:00)

ATLAS 5 CENTAUR R/B - Pass Details

Date: 22 April 2021
Orbit: 516 x 1141 km, 63.3° (Epoch: 02 May)

Event Time Altitude Azimuth Distance (km) Brightness Sun altitude
Rises 23:19:31 0° 332° (NNW) 3,227 5.9 -36.4°
Reaches altitude 10° 23:22:00 10° 342° (NNW) 2,397 5.2 -36.4°
Maximum altitude 23:27:05 34° 47° (NE) 1,449 3.6 -36.2°
Enters shadow 23:27:06 34° 47° (NE) 1,449 3.6 -36.2°
